Date String (YYYY-MM-DD hh:mm:ss) UTC,Instrument flags,absolute air pressure of the measurement (hPa),sample flow rate (lpm),inlet stack bypass flow (lpm),air temperature of the measurement (°C),ambient temperature measured by the external sensor (°C),aerosol sample conditioner tube jacket temperature (°C),OPC LED temperature (°C),internal box temperature (°C),relative humidity of the measurement (%),span deviation,mass concentration of particles derived from Lorenz-Mie calculation of OPC scattering (μg/m³),mass concentration of particles derived from Lorenz-Mie calculation of OPC scattering (μg/m³),mass concentration of particles derived from Lorenz-Mie calculation of OPC scattering (μg/m³)
DateTimeUTC,F1_M11,P_M11,Q1_M11,Q2_M11,T1_M11,T2_M11,T3_M11,T4_M11,T5_M11,U1_M11,ZSPAN_M11,X2_M11,X0_M11,X1_M11
2023-07-31 12:00:00,SystemResetWarning,0836.8,4.99,000.00,031.2,026.6,000.0,038.8,031.4,34.8,0000.0,0005.99,0012.06,0004.60
2023-07-31 12:01:00,SystemResetWarning,0836.8,5.00,000.00,031.1,025.7,000.0,038.8,031.3,35.2,0000.0,0006.01,0012.10,0004.62
2023-07-31 12:02:00,SystemResetWarning,0836.8,5.02,000.00,031.1,025.7,000.0,038.8,031.0,35.5,0000.0,0006.04,0012.08,0004.64
2023-07-31 12:03:00,SystemResetWarning,0836.8,4.99,000.00,031.2,026.1,000.0,038.8,031.2,35.5,0000.0,0006.03,0011.99,0004.67
2023-07-31 12:04:00,SystemResetWarning,0836.8,5.02,000.00,031.5,026.5,000.0,038.9,031.4,35.0,0000.0,0006.13,0012.55,0004.70
2023-07-31 12:05:00,SystemResetWarning,0836.9,4.98,000.00,031.8,026.8,000.0,038.9,031.5,34.5,0000.0,0006.29,0013.78,0004.74
2023-07-31 12:06:00,SystemResetWarning,0837.0,4.99,000.00,031.9,027.1,000.0,039.0,031.6,34.0,0000.0,0006.33,0014.26,0004.77
2023-07-31 12:07:00,SystemResetWarning,0837.0,5.01,000.00,032.0,027.4,000.0,039.1,031.6,34.2,0000.0,0006.40,0014.82,0004.78
2023-07-31 12:08:00,SystemResetWarning,0837.0,5.01,000.00,032.1,027.7,000.0,039.2,031.7,34.3,0000.0,0006.45,0014.44,0004.80
2023-07-31 12:09:00,SystemResetWarning,0837.0,5.00,000.00,032.1,027.9,000.0,039.4,031.7,34.6,0000.0,0006.46,0014.01,0004.81
2023-07-31 12:10:00,SystemResetWarning,0837.0,5.00,000.00,032.1,028.1,000.0,039.4,031.7,34.9,0000.0,0006.51,0014.15,0004.84
2023-07-31 12:11:00,SystemResetWarning,0837.0,5.00,000.00,032.1,028.2,000.0,039.5,031.8,34.8,0000.0,0006.52,0014.19,0004.85
2023-07-31 12:12:00,SystemResetWarning,0837.0,5.00,000.00,032.1,028.3,000.0,039.6,031.8,34.6,0000.0,0006.57,0015.07,0004.86
2023-07-31 12:13:00,SystemResetWarning,0837.0,5.00,000.00,032.1,028.5,000.0,039.7,031.9,34.4,0000.0,0006.60,0015.49,0004.88
2023-07-31 12:14:00,SystemResetWarning,0836.9,5.00,000.00,032.1,028.5,000.0,039.7,031.9,34.5,0000.0,0006.70,0016.54,0004.88
2023-07-31 12:15:00,SystemResetWarning,0836.9,4.97,000.00,032.1,027.4,000.0,039.7,031.8,34.5,0000.0,0006.72,0017.19,0004.91
2023-07-31 12:16:00,SystemResetWarning,0837.0,5.01,000.00,032.1,026.0,000.0,039.6,031.7,34.6,0000.0,0006.64,0016.02,0004.91
2023-07-31 12:17:00,SystemResetWarning,0836.9,4.99,000.00,032.0,025.7,000.0,039.5,031.4,35.1,0000.0,0006.67,0015.67,0004.93
2023-07-31 12:18:00,SystemResetWarning,0836.8,5.01,000.00,031.9,025.9,000.0,039.6,031.3,35.6,0000.0,0006.70,0015.28,0004.95
2023-07-31 12:19:00,SystemResetWarning,0836.8,4.99,000.00,032.0,026.3,000.0,039.6,031.5,35.4,0000.0,0006.75,0015.38,0004.99
2023-07-31 12:20:00,SystemResetWarning,0836.9,5.01,000.00,032.3,026.7,000.0,039.6,031.7,34.7,0000.0,0006.78,0015.54,0005.02
2023-07-31 12:21:00,SystemResetWarning,0836.9,4.98,000.00,032.5,027.1,000.0,039.7,031.8,34.3,0000.0,0006.84,0015.61,0005.05
2023-07-31 12:22:00,SystemResetWarning,0836.9,4.99,000.00,032.6,027.4,000.0,039.7,031.9,34.2,0000.0,0007.00,0016.19,0005.10
2023-07-31 12:23:00,SystemResetWarning,0836.9,5.01,000.00,032.6,027.6,000.0,039.8,031.9,34.2,0000.0,0007.02,0016.07,0005.12
2023-07-31 12:24:00,SystemResetWarning,0836.9,5.01,000.00,032.6,027.8,000.0,039.9,031.9,33.9,0000.0,0007.06,0015.92,0005.14
2023-07-31 12:25:00,SystemResetWarning,0837.0,5.00,000.00,032.6,028.0,000.0,040.0,031.9,33.8,0000.0,0007.11,0015.86,0005.18
2023-07-31 12:26:00,SystemResetWarning,0837.0,5.00,000.00,032.6,028.2,000.0,040.1,032.0,33.8,0000.0,0007.21,0015.45,0005.22
2023-07-31 12:27:00,SystemResetWarning,0837.0,5.00,000.00,032.6,028.3,000.0,040.1,032.0,33.9,0000.0,0007.27,0015.81,0005.26
2023-07-31 12:28:00,SystemResetWarning,0837.1,4.99,000.00,032.6,028.4,000.0,040.2,032.0,34.1,0000.0,0007.36,0016.06,0005.30
2023-07-31 12:29:00,SystemResetWarning,0837.1,4.99,000.00,032.6,028.5,000.0,040.2,032.1,34.3,0000.0,0007.43,0016.54,0005.33
2023-07-31 12:30:00,SystemResetWarning,0837.0,5.00,000.00,032.6,027.3,000.0,040.1,032.0,34.4,0000.0,0007.56,0017.50,0005.36
2023-07-31 12:31:00,SystemResetWarning,0837.1,4.99,000.00,032.5,026.0,000.0,040.0,031.8,34.5,0000.0,0007.60,0017.52,0005.38
2023-07-31 12:32:00,SystemResetWarning,0837.0,5.00,000.00,032.4,025.7,000.0,040.0,031.5,34.9,0000.0,0007.61,0018.01,0005.40
2023-07-31 12:33:00,SystemResetWarning,0837.0,5.02,000.00,032.2,026.0,000.0,040.0,031.4,35.5,0000.0,0007.63,0018.67,0005.43
2023-07-31 12:34:00,SystemResetWarning,0837.0,5.01,000.00,032.3,026.4,000.0,040.0,031.6,35.5,0000.0,0007.70,0018.33,0005.48
2023-07-31 12:35:00,SystemResetWarning,0837.0,5.00,000.00,032.5,026.8,000.0,040.0,031.8,35.2,0000.0,0007.78,0019.02,0005.52
2023-07-31 12:36:00,SystemResetWarning,0837.2,4.99,000.00,032.8,027.1,000.0,040.0,032.0,34.7,0000.0,0007.84,0019.54,0005.57
2023-07-31 12:37:00,SystemResetWarning,0837.2,4.99,000.00,033.0,027.4,000.0,040.1,032.0,34.4,0000.0,0007.86,0019.06,0005.59
2023-07-31 12:38:00,SystemResetWarning,0837.2,5.02,000.00,033.1,027.7,000.0,040.2,032.0,34.5,0000.0,0007.91,0018.81,0005.60
2023-07-31 12:39:00,SystemResetWarning,0837.2,5.00,000.00,033.1,027.9,000.0,040.2,032.1,34.5,0000.0,0007.92,0019.12,0005.61
2023-07-31 12:40:00,SystemResetWarning,0837.2,5.00,000.00,033.1,028.1,000.0,040.3,032.1,34.6,0000.0,0007.92,0019.33,0005.61
2023-07-31 12:41:00,SystemResetWarning,0837.3,5.00,000.00,033.1,028.3,000.0,040.4,032.1,34.8,0000.0,0007.88,0018.76,0005.61
2023-07-31 12:42:00,SystemResetWarning,0837.2,4.99,000.00,033.1,028.4,000.0,040.5,032.2,35.2,0000.0,0007.93,0018.88,0005.62
2023-07-31 12:43:00,SystemResetWarning,0837.2,5.03,000.00,033.2,028.5,000.0,040.6,032.3,35.1,0000.0,0007.99,0019.02,0005.63
2023-07-31 12:44:00,SystemResetWarning,0837.2,4.99,000.00,033.4,028.5,000.0,040.6,032.4,34.7,0000.0,0007.93,0018.55,0005.62
2023-07-31 12:45:00,SystemResetWarning,0837.2,4.99,000.00,033.6,027.2,000.0,040.5,032.4,34.4,0000.0,0007.95,0018.60,0005.61
2023-07-31 12:46:00,SystemResetWarning,0837.2,5.00,000.00,033.7,025.6,000.0,040.4,032.1,34.3,0000.0,0007.99,0018.31,0005.60
2023-07-31 12:47:00,SystemResetWarning,0837.2,5.01,000.00,033.6,025.1,000.0,040.4,031.9,34.5,0000.0,0008.02,0017.96,0005.59
2023-07-31 12:48:00,SystemResetWarning,0837.2,4.99,000.00,033.4,025.2,000.0,040.5,031.7,35.0,0000.0,0007.96,0018.02,0005.57
2023-07-31 12:49:00,SystemResetWarning,0837.2,5.02,000.00,033.3,025.7,000.0,040.6,031.7,35.4,0000.0,0007.95,0018.76,0005.57
2023-07-31 12:50:00,SystemResetWarning,0837.2,5.00,000.00,033.4,026.1,000.0,040.6,031.9,35.4,0000.0,0007.99,0018.99,0005.58
2023-07-31 12:51:00,SystemResetWarning,0837.2,5.00,000.00,033.6,026.6,000.0,040.7,032.0,35.1,0000.0,0007.99,0018.92,0005.59
2023-07-31 12:52:00,SystemResetWarning,0837.2,4.99,000.00,033.9,026.9,000.0,040.7,032.2,34.7,0000.0,0008.03,0019.23,0005.60
2023-07-31 12:53:00,SystemResetWarning,0837.2,4.99,000.00,034.0,027.3,000.0,040.8,032.2,34.6,0000.0,0008.09,0020.27,0005.62
2023-07-31 12:54:00,SystemResetWarning,0837.2,5.01,000.00,034.0,027.6,000.0,040.9,032.2,34.7,0000.0,0008.08,0020.51,0005.62
2023-07-31 12:55:00,SystemResetWarning,0837.2,5.00,000.00,034.0,027.8,000.0,041.0,032.3,34.8,0000.0,0008.18,0021.84,0005.64
2023-07-31 12:56:00,SystemResetWarning,0837.2,4.99,000.00,034.0,028.0,000.0,041.1,032.3,35.0,0000.0,0008.18,0021.94,0005.66
2023-07-31 12:57:00,SystemResetWarning,0837.2,5.03,000.00,034.1,028.2,000.0,041.2,032.4,35.0,0000.0,0008.18,0022.22,0005.69
2023-07-31 12:58:00,SystemResetWarning,0837.4,4.99,000.00,034.2,028.3,000.0,041.2,032.5,34.8,0000.0,0008.17,0022.03,0005.70
2023-07-31 12:59:00,SystemResetWarning,0837.4,4.99,000.00,034.2,028.4,000.0,041.3,032.5,34.8,0000.8,0008.23,0022.43,0005.73
